Theta_e
341 334 328 330 334 340 342 343 344 344 344 343 343 342 342 339 334 326 320 318 317 318 318 322 329 334 336 334 335 334 334 333 333 334 334 333 332 331 331 331 330 330 331 331 332 332 330 330 330 330 331 329 328 329 330 330 329 330 330 330 330 330 330 329 329 330 330 331 331 332 332 331 331 330 329 328 328 328 329 329 329 328 329 330 330
341 335 329 331 337 341 342 343 344 345 344 343 343 342 342 339 334 324 319 322 321 319 320 327 332 334 335 335 335 335 334 333 333 333 333 332 332 331 331 331 330 330 330 331 331 331 332 333 333 333 332 328 328 331 330 331 330 331 331 330 331 330 329 329 330 330 331 331 331 332 332 331 330 329 328 328 327 328 328 328 329 329 329 329 327
339 336 328 331 339 341 342 343 344 345 344 344 343 343 342 339 334 324 320 327 329 327 327 332 333 334 335 335 335 334 334 333 333 332 332 332 331 331 331 331 331 330 330 330 330 330 332 333 333 334 332 327 329 331 330 330 330 331 331 330 329 328 328 327 328 329 330 331 331 332 332 331 331 329 329 329 328 327 328 327 327 327 327 327 325
339 336 329 332 340 341 342 343 344 344 344 344 343 343 342 339 334 323 321 330 334 333 333 334 333 333 334 334 335 335 334 333 333 332 332 331 331 331 331 331 331 331 331 331 329 328 331 333 333 333 332 329 329 330 330 330 330 331 330 328 326 326 325 325 325 325 325 327 330 330 331 331 331 330 330 330 329 328 328 328 328 328 329 330 329
339 336 331 334 340 342 342 343 344 344 344 344 343 343 342 339 333 322 323 332 334 335 335 336 333 327 328 333 335 334 334 334 333 332 332 332 332 331 331 330 331 331 330 330 329 327 330 332 333 332 331 330 329 329 330 331 331 330 329 327 326 326 326 326 326 324 322 322 327 327 327 330 330 330 330 329 328 328 330 331 331 331 331 332 332
339 336 333 334 340 343 341 343 343 344 344 344 343 342 341 339 330 321 328 335 334 335 335 336 333 323 323 328 333 334 334 333 331 332 333 334 333 332 332 331 331 331 330 330 329 328 329 330 331 331 330 329 329 329 330 330 330 330 329 329 329 328 327 327 327 327 323 319 324 326 325 327 328 329 329 328 328 329 331 331 332 332 333 333 333
338 336 334 333 340 343 342 343 343 344 344 344 344 342 342 338 327 323 335 337 334 334 333 335 332 324 321 325 329 330 329 329 330 333 334 335 335 333 333 332 332 332 331 331 330 329 328 329 330 330 329 328 329 330 330 329 329 329 328 328 327 327 326 326 326 327 324 318 320 325 325 325 325 326 329 329 330 331 332 332 333 333 334 333 333
337 336 334 330 338 342 342 342 343 344 343 344 343 342 343 337 324 328 339 339 334 333 334 336 332 324 323 325 326 326 325 328 333 335 335 335 335 334 333 332 332 332 332 331 330 329 328 328 329 328 328 328 329 330 329 328 327 326 325 325 325 325 326 325 326 327 325 322 321 323 324 324 324 327 330 330 331 333 333 333 334 334 333 333 334
338 337 335 330 335 341 342 342 343 343 343 343 343 342 342 336 325 333 341 338 334 333 335 336 333 325 325 329 330 331 331 333 335 335 336 336 336 333 333 333 332 332 332 331 329 328 328 328 328 327 328 328 329 328 327 326 325 324 324 324 325 326 327 326 327 327 326 326 326 326 326 325 325 329 332 331 332 333 333 333 333 333 333 333 333
339 337 338 334 333 340 342 341 343 343 344 343 343 342 342 336 328 335 341 339 334 332 334 336 333 326 327 332 334 336 335 336 336 336 337 336 335 333 332 333 331 331 331 331 329 328 328 328 327 327 328 328 328 327 325 324 324 325 325 325 326 327 328 327 328 328 327 327 328 329 329 329 329 331 332 333 333 332 332 333 333 333 333 332 332
340 338 339 336 332 338 341 341 342 342 343 343 343 342 342 337 331 337 341 340 335 333 335 336 336 330 330 335 336 337 336 336 336 337 338 336 334 332 332 332 331 331 330 329 328 328 328 328 327 328 327 327 328 325 323 324 324 325 325 326 326 327 329 330 329 329 328 328 328 328 329 330 330 331 333 333 332 331 332 333 333 333 332 332 332
340 339 339 339 335 336 339 342 341 341 342 342 342 341 342 338 333 337 340 341 338 335 336 337 337 335 334 336 337 337 337 336 336 338 337 335 333 332 332 331 331 330 329 329 328 327 328 328 327 328 327 327 327 324 323 324 325 325 326 327 327 329 331 331 330 329 328 328 328 329 329 329 331 332 333 333 332 332 332 332 332 332 332 331 330
341 340 339 340 337 336 339 341 341 341 342 341 341 341 342 340 336 336 340 341 339 339 338 339 339 338 338 337 338 338 337 336 337 338 336 333 333 332 331 331 331 329 329 328 327 327 327 327 327 327 327 327 326 323 323 324 325 325 326 327 329 330 331 331 331 330 329 329 328 329 329 330 331 332 333 333 333 333 332 332 332 331 330 330 329
341 341 339 339 338 337 337 341 342 341 342 341 340 341 341 340 338 336 339 341 340 341 340 339 339 338 339 338 338 338 337 337 337 336 334 333 332 331 331 330 330 329 328 327 327 327 327 327 327 327 327 326 326 324 324 324 324 325 327 329 329 330 330 331 331 331 331 330 328 328 329 331 332 333 333 333 333 332 332 332 331 330 329 328 328
341 341 340 339 338 338 338 339 341 342 342 341 339 340 341 340 339 336 338 340 340 341 340 340 339 338 339 338 338 338 338 337 337 335 333 332 331 330 330 330 329 328 327 327 327 326 326 327 327 327 326 326 325 324 324 323 323 325 328 329 330 330 329 330 331 332 332 331 329 328 329 331 333 333 333 333 332 332 331 331 330 329 328 327 326
342 341 340 339 339 339 339 339 341 341 342 341 339 339 341 340 339 337 339 340 340 340 340 340 340 339 339 338 338 337 337 337 336 334 333 332 330 329 330 329 328 327 327 327 327 325 326 326 327 326 325 325 324 323 323 322 323 326 329 330 330 330 330 330 332 332 332 332 330 330 331 332 333 333 333 332 332 331 330 329 328 327 326 326 325
340 342 341 340 339 340 339 339 340 340 340 341 339 339 340 341 340 339 340 340 339 339 339 340 340 339 339 338 338 337 337 337 335 333 332 330 329 329 329 329 327 327 327 327 326 325 326 326 326 326 325 325 322 321 321 321 324 327 329 329 330 331 331 332 332 332 332 332 332 332 333 333 333 333 332 332 331 329 328 328 327 326 325 325 324
338 340 341 341 340 339 340 339 339 340 340 340 339 339 339 340 341 339 340 340 339 339 339 339 340 339 339 338 338 337 336 336 334 331 331 329 329 329 328 328 327 327 327 327 325 324 325 326 326 325 325 322 319 319 319 322 326 328 329 330 331 332 332 332 332 333 333 333 333 333 333 333 332 332 331 330 329 328 327 326 326 325 324 323 323
336 337 338 341 341 340 339 339 339 340 340 340 338 339 339 340 341 340 340 339 338 339 339 338 339 339 339 339 338 337 335 334 332 329 330 330 329 328 328 327 327 326 327 326 324 324 325 326 326 325 324 320 317 316 319 324 327 328 330 331 331 332 333 333 333 333 334 333 333 333 332 332 331 330 329 328 328 327 326 324 324 323 322 322 321
329 333 334 336 339 341 339 339 340 339 339 340 338 338 339 340 341 341 340 339 338 338 338 339 339 338 338 338 337 335 334 333 330 329 330 329 328 328 327 327 327 326 326 325 324 324 325 326 325 324 322 320 318 318 322 326 327 329 330 331 331 332 333 333 333 334 333 333 332 332 332 331 330 329 328 327 327 325 323 322 323 322 321 320 320
319 324 328 326 328 336 340 340 338 339 339 338 339 338 338 340 341 341 340 339 338 338 338 339 339 338 338 337 336 335 333 331 329 329 329 328 327 327 327 326 326 326 326 324 323 325 326 325 324 323 321 320 321 323 325 327 328 330 330 331 331 332 333 333 333 333 332 332 332 332 331 330 329 328 327 326 325 324 322 321 321 320 320 319 318
313 314 316 317 318 324 333 340 340 338 339 339 338 338 337 340 341 340 340 339 338 338 339 339 338 338 338 336 335 334 333 330 328 329 328 328 327 327 327 325 324 326 325 324 323 326 326 324 324 323 320 321 323 325 326 328 329 330 330 332 332 332 333 332 332 331 331 331 331 331 330 329 328 326 325 324 323 322 321 320 320 319 318 317 316
312 311 312 313 314 315 319 329 339 339 338 339 338 337 337 339 341 340 339 339 339 338 339 339 338 338 337 335 335 334 332 329 327 328 328 328 327 327 327 325 323 323 324 324 323 325 326 324 324 322 321 322 324 325 327 329 330 330 331 332 332 332 332 331 331 331 330 330 329 329 329 328 327 325 324 323 322 321 320 319 318 317 316 315 315
311 311 311 311 314 316 314 316 328 338 339 338 339 338 338 340 340 340 339 339 339 339 339 339 338 337 336 335 334 334 331 327 327 328 328 328 327 326 326 325 324 323 323 324 323 324 326 325 324 321 321 323 324 326 328 329 330 331 332 331 331 331 330 330 330 329 329 328 328 328 327 326 325 324 323 322 320 319 318 317 316 315 315 314 314
311 311 311 310 313 317 316 314 316 329 339 338 338 338 337 339 340 339 340 338 338 339 338 338 337 336 335 334 334 333 329 327 329 329 327 327 326 326 326 324 323 323 324 324 324 324 325 325 323 320 321 323 325 327 328 330 331 331 331 330 329 329 329 329 328 328 327 327 326 326 325 324 324 322 321 320 318 318 317 316 316 315 314 313 313
310 310 310 309 313 315 316 318 314 320 335 339 337 338 337 338 340 339 338 338 338 338 338 337 337 335 335 334 333 331 328 329 329 328 327 326 326 326 325 324 323 323 324 325 325 325 324 323 322 321 322 324 325 327 329 330 330 330 330 329 328 328 328 327 327 326 325 325 323 323 323 322 322 321 320 319 317 317 316 316 315 314 313 313 312
309 309 310 310 314 315 314 318 317 317 328 337 336 336 338 337 338 339 337 337 338 337 337 336 336 335 334 333 332 330 328 329 329 328 327 325 325 325 324 323 323 323 324 324 325 324 323 323 323 323 324 324 326 327 328 328 328 329 329 328 327 327 326 326 324 324 322 322 321 321 321 321 320 319 319 317 317 316 316 315 314 314 313 313 312
309 309 310 312 314 315 315 317 318 317 322 332 337 336 337 337 337 338 338 336 337 336 336 336 335 334 334 333 332 329 328 329 328 328 326 325 325 324 323 323 323 323 324 324 324 323 322 323 323 322 323 326 327 328 326 325 326 327 328 327 325 325 324 323 322 321 320 320 320 320 319 319 319 318 318 317 317 316 316 315 314 314 313 313 312
311 309 310 314 315 314 314 316 318 319 319 322 332 337 337 337 337 337 337 336 336 336 335 335 334 334 333 332 331 328 328 328 328 327 325 323 324 323 323 324 324 324 324 325 324 322 323 323 322 322 324 327 327 326 324 322 324 326 327 326 324 323 322 321 320 320 320 320 320 320 320 319 319 319 318 318 317 316 315 315 314 313 312 312 311
311 311 312 315 315 313 313 315 318 320 318 315 321 332 337 336 336 337 336 336 336 335 335 334 333 333 332 332 331 328 327 328 327 326 323 322 323 323 324 325 324 324 324 324 322 321 323 323 323 324 325 326 326 324 322 320 322 324 325 325 323 321 321 320 320 319 319 320 320 319 319 319 318 318 317 317 317 315 314 314 314 312 312 311 310
312 313 315 316 314 314 311 313 317 319 320 318 316 323 334 337 335 336 336 336 335 335 334 334 333 332 331 331 330 327 327 327 326 324 322 322 323 324 325 325 325 324 324 323 321 321 323 323 324 324 324 324 323 321 320 320 320 322 323 324 322 320 320 320 319 318 318 319 319 317 317 318 317 317 317 316 316 315 314 313 312 312 312 311 310
314 315 316 315 314 314 311 312 316 318 320 321 318 318 326 334 336 335 336 335 334 335 334 333 333 331 331 330 328 327 327 327 325 323 322 323 323 324 325 326 325 325 324 322 321 322 323 322 322 322 323 323 320 318 319 320 318 318 320 322 320 319 318 318 318 317 317 318 317 316 317 316 315 316 316 315 315 314 313 312 312 312 312 311 310
313 314 314 314 314 313 311 312 314 317 320 320 318 315 315 324 334 335 334 335 334 334 334 333 332 331 330 329 327 327 327 326 324 323 322 323 323 324 326 326 326 325 323 322 322 323 322 321 321 321 322 321 319 317 317 318 316 315 317 319 319 318 317 316 317 316 316 316 315 315 316 315 314 315 314 314 313 313 313 312 311 311 311 311 310
311 312 315 314 314 313 311 312 314 316 320 320 317 315 314 317 328 336 333 333 335 334 334 333 331 330 330 329 327 326 326 325 324 323 322 323 324 324 326 325 326 325 323 323 323 323 322 321 321 320 320 319 318 317 316 314 313 313 314 317 317 316 315 315 315 315 315 315 314 314 314 313 313 313 313 313 312 312 312 311 311 311 311 311 310
311 313 315 314 314 313 311 312 315 316 319 321 317 314 314 314 321 332 334 332 334 333 333 333 332 330 329 328 327 326 325 325 323 322 322 323 324 324 325 326 325 324 323 323 323 323 322 321 321 319 317 316 316 316 316 313 311 311 312 314 315 313 313 314 314 314 314 314 313 313 313 313 313 312 312 312 312 311 311 311 311 310 310 310 310
313 314 314 314 313 312 312 313 314 315 318 320 317 313 313 313 315 325 333 333 332 333 333 333 332 330 329 328 327 326 325 325 323 321 322 323 324 324 325 325 325 323 323 323 323 322 322 320 320 319 315 313 313 313 313 312 310 309 310 311 312 311 312 312 312 313 313 312 312 312 312 312 312 311 311 311 311 311 310 310 309 308 308 309 309
311 313 313 312 312 312 311 312 314 315 317 319 317 314 313 313 312 316 327 333 332 333 333 332 332 330 329 328 326 326 324 324 323 321 322 323 323 324 324 325 324 322 322 322 322 321 321 320 318 318 316 312 310 309 309 309 308 307 307 308 308 308 309 309 310 310 311 311 311 311 311 311 311 310 310 311 310 310 309 309 308 307 307 307 308
308 311 313 311 311 312 311 311 313 314 317 318 316 313 312 311 310 310 319 330 332 332 332 332 332 331 329 328 326 325 325 323 323 322 322 323 323 324 324 324 323 321 321 321 320 320 320 320 316 315 316 314 310 308 306 305 305 305 305 305 306 306 306 307 308 308 309 310 310 310 310 309 309 310 310 309 309 309 308 307 307 306 306 306 306
306 311 312 311 311 311 310 310 313 314 316 318 315 313 312 310 310 310 312 324 332 331 331 331 331 331 329 328 327 325 325 324 323 322 322 323 324 324 324 323 321 320 319 319 318 318 318 318 316 313 313 314 311 308 305 303 302 302 303 303 303 305 305 305 306 307 308 308 308 308 308 309 308 308 308 308 308 308 307 306 304 304 305 305 305
307 311 312 311 310 310 308 309 312 313 315 318 317 314 313 311 311 311 310 320 332 331 330 332 330 331 330 328 327 325 325 325 324 323 322 323 324 324 324 322 320 319 318 318 317 318 317 316 315 313 310 309 308 307 305 302 300 298 298 299 300 301 302 304 305 305 306 306 306 306 306 307 307 307 307 307 307 307 306 304 303 303 304 304 305
309 312 312 310 310 309 307 309 311 313 314 317 319 315 313 312 311 311 310 317 330 332 330 331 331 331 331 329 327 326 325 325 324 323 321 322 323 324 323 321 320 319 319 319 318 317 316 315 314 312 311 306 303 303 304 304 301 296 295 295 296 298 299 301 302 302 303 303 304 305 305 306 306 305 305 305 306 305 304 303 302 302 302 303 304
309 311 312 310 309 307 306 308 310 312 314 315 319 318 313 312 311 311 311 312 322 331 330 330 331 330 331 329 327 326 325 325 324 322 321 322 323 323 322 320 319 319 318 317 317 316 314 314 312 309 309 306 302 301 304 306 302 297 295 293 293 295 296 297 298 297 298 300 301 301 303 304 304 303 304 304 304 303 303 302 301 301 302 302 302
310 310 311 310 308 306 305 307 309 312 313 314 318 319 314 312 311 310 311 310 315 327 332 330 330 330 330 330 328 326 325 325 324 323 321 321 322 323 321 319 319 318 317 316 315 315 314 313 312 309 306 304 302 301 305 307 302 297 298 297 295 294 294 293 293 294 295 296 297 298 298 300 301 302 302 302 302 301 301 301 300 299 299 299 301
310 310 310 310 307 305 305 305 308 311 313 314 317 319 316 312 311 310 311 311 312 322 330 330 330 330 329 329 328 327 326 324 324 323 321 321 322 322 321 319 318 318 317 315 314 314 313 312 311 310 306 303 300 300 304 305 304 302 301 300 296 298 299 293 289 290 291 292 293 294 294 295 297 298 298 298 298 298 299 299 298 296 293 295 300
310 311 310 310 307 305 305 305 307 310 312 314 316 320 318 313 311 311 312 313 313 318 324 327 329 328 328 328 327 326 325 324 324 323 322 321 322 322 321 319 317 317 317 316 314 313 313 312 311 310 308 305 301 301 302 303 307 309 307 302 300 303 300 292 290 290 288 289 289 290 291 291 292 293 292 293 293 295 296 296 294 292 291 295 300
309 310 310 309 307 306 305 305 306 309 312 314 316 319 320 315 312 312 311 312 314 317 318 321 325 327 327 326 326 325 324 323 322 322 321 321 321 321 320 318 316 316 316 316 315 313 311 311 311 310 309 308 304 302 302 302 305 309 310 307 307 307 298 291 294 292 287 287 288 287 288 288 289 289 289 289 289 291 292 291 290 289 291 296 299
309 310 310 308 307 306 305 304 305 308 311 314 315 318 320 318 316 315 312 310 312 316 316 318 321 324 325 325 324 324 323 322 321 320 320 320 321 320 319 318 317 316 316 315 314 313 313 311 311 310 308 307 305 304 303 302 303 305 307 307 306 307 303 298 297 295 291 289 287 286 287 287 287 287 287 287 287 288 288 288 288 288 290 295 298
309 310 310 309 308 306 305 304 304 306 310 313 315 317 320 320 320 319 317 313 310 312 315 316 318 320 322 323 323 323 322 321 321 320 320 320 319 318 318 317 316 315 316 315 314 313 312 311 310 309 308 307 306 306 306 303 303 304 306 305 305 306 306 303 301 299 296 291 287 286 286 286 286 287 287 287 287 287 287 287 287 287 287 290 293
309 310 310 309 308 306 306 304 304 305 309 312 314 316 318 320 321 320 319 317 315 312 312 313 316 317 318 319 320 321 320 319 319 319 319 319 318 317 317 317 316 316 316 316 315 313 311 311 309 309 308 307 307 307 307 305 305 307 305 304 305 303 302 302 301 300 297 293 290 286 285 285 285 286 286 287 287 286 286 287 286 286 286 287 289
306 308 309 309 308 306 306 305 304 304 307 312 314 315 317 318 320 320 320 320 318 316 315 313 313 314 315 318 319 319 319 317 316 317 317 317 317 317 317 316 316 316 316 316 316 314 312 311 310 310 309 308 307 307 307 307 307 308 307 306 304 301 299 298 298 298 296 294 292 287 285 285 285 285 285 285 286 285 285 285 285 286 285 286 287
303 307 309 309 307 306 306 305 305 304 305 310 313 314 316 317 319 320 320 320 319 318 317 316 315 313 313 317 321 322 321 320 318 317 318 317 317 317 317 316 316 316 315 315 316 314 313 312 311 310 309 308 308 307 307 308 308 308 307 307 306 304 302 299 298 299 297 293 292 288 285 285 285 285 284 285 285 284 284 284 284 285 284 285 285
Wind_Speed
29 38 37 37 38 35 34 32 31 31 31 30 30 29 26 27 28 27 28 30 30 30 30 29 27 27 26 26 27 26 26 26 26 25 24 23 23 22 21 20 20 19 20 19 19 20 20 20 20 20 21 20 21 22 22 21 22 23 23 23 23 23 23 23 23 23 21 21 21 22 21 20 20 20 20 20 20 19 19 20 20 19 18 17 16
38 40 40 38 38 37 36 34 34 32 32 31 30 30 28 28 29 28 28 28 29 31 30 29 28 27 26 27 26 26 26 26 27 26 25 24 23 22 21 21 20 20 20 20 19 19 20 21 20 21 22 21 21 21 21 22 22 22 23 23 23 23 24 23 23 22 21 20 20 20 20 20 20 20 21 21 20 19 19 19 18 18 17 15 14
41 42 42 39 39 38 37 36 35 34 33 32 31 31 30 30 31 30 29 26 25 28 29 28 28 28 27 27 26 26 27 27 27 27 26 24 23 22 21 20 20 19 19 19 18 19 19 20 20 20 22 21 20 20 21 22 22 21 22 23 24 23 22 22 20 20 19 19 20 20 20 20 20 20 20 20 19 19 18 18 17 17 18 17 16
40 42 42 40 40 38 38 37 37 36 35 34 32 32 31 32 32 31 30 26 24 25 27 28 28 29 29 28 27 27 27 28 28 28 27 25 24 22 22 21 20 20 19 19 19 19 19 19 19 20 21 21 19 20 21 22 22 21 21 23 24 22 21 20 19 18 16 17 19 21 21 20 19 18 17 16 16 18 19 19 19 18 18 17 17
40 41 41 41 40 38 38 37 37 37 36 35 33 32 32 32 34 33 30 27 25 25 27 28 29 31 31 30 28 28 28 29 29 28 27 26 25 23 22 21 21 21 20 20 19 19 19 19 19 19 20 20 20 21 21 21 20 20 21 23 23 21 20 19 19 18 16 15 17 20 20 20 19 18 17 16 16 18 17 17 17 17 16 16 16
41 42 41 42 41 39 38 37 37 37 37 36 34 34 33 33 35 35 31 28 27 26 27 27 28 32 32 31 29 28 28 29 30 28 27 26 24 22 22 21 22 21 21 21 20 19 19 19 19 19 19 20 21 22 21 20 19 20 22 22 20 19 17 15 15 17 16 15 17 18 19 20 19 18 17 16 17 17 14 16 16 16 16 15 15
41 42 41 43 42 41 39 39 38 37 37 36 36 35 34 34 36 35 32 30 29 27 27 26 27 32 33 32 31 30 30 29 29 28 27 26 23 22 23 22 22 22 22 21 21 20 20 20 20 20 19 20 22 21 20 20 21 22 21 19 17 15 12 10 12 16 18 17 18 18 18 19 18 18 17 15 16 16 15 16 16 15 15 17 20
40 43 43 44 43 43 41 40 39 38 37 36 37 36 35 36 37 35 32 31 31 29 28 26 26 31 33 33 33 32 31 30 28 27 27 25 23 23 24 23 23 23 22 21 21 21 21 21 21 20 20 22 21 20 21 23 24 22 19 17 15 12 10 10 14 17 19 20 20 20 19 19 18 18 17 15 15 16 16 15 16 18 22 25 28
38 42 43 44 44 44 42 41 41 39 38 37 37 37 36 38 39 34 32 33 32 31 30 28 27 30 33 32 32 31 31 30 28 26 26 24 22 23 24 23 23 23 22 22 21 21 22 21 22 21 21 22 21 21 24 25 23 19 17 15 13 12 13 13 16 19 20 21 21 20 20 18 19 18 16 16 17 17 17 19 24 27 28 29 29
37 39 41 43 44 45 43 43 42 41 39 37 37 37 37 39 40 35 33 33 33 33 32 31 29 31 32 31 30 30 30 28 28 27 25 22 20 23 24 23 23 23 22 22 22 22 22 22 22 21 21 22 21 23 26 24 20 18 16 14 13 15 16 16 17 18 19 20 20 20 20 18 18 17 16 17 17 18 20 26 30 29 28 27 26
35 37 38 40 43 46 44 44 43 42 40 39 39 37 37 40 41 36 34 34 34 34 32 32 31 32 31 29 28 28 29 28 28 26 23 21 21 23 24 23 23 23 23 23 23 23 23 23 22 21 21 21 21 25 25 22 19 17 15 14 15 17 17 16 17 18 19 19 19 19 20 19 17 16 16 17 17 21 26 30 30 28 27 25 24
33 35 37 37 39 44 44 44 43 43 41 40 41 40 39 41 42 38 35 35 35 34 34 33 32 33 31 30 28 27 28 28 28 25 22 21 21 23 24 24 23 23 23 24 24 24 24 23 22 21 21 20 21 25 24 20 19 17 15 14 16 18 18 17 18 19 18 17 18 18 18 17 16 16 16 18 23 28 29 29 29 27 26 24 23
33 34 36 36 37 42 44 44 43 43 41 41 42 41 41 42 42 40 36 36 36 35 34 33 33 33 32 30 28 27 28 29 28 25 23 22 22 23 24 24 24 23 23 24 24 24 24 24 23 21 20 19 21 25 23 20 19 16 15 15 16 17 17 17 17 18 16 16 17 16 15 15 16 16 17 23 29 30 29 27 27 25 24 23 22
32 35 37 37 38 42 43 43 43 43 41 41 42 42 43 43 43 42 39 37 36 35 33 33 33 33 31 31 29 28 28 29 27 25 24 23 23 23 25 24 24 23 23 24 24 25 24 24 23 21 20 18 21 25 22 20 18 16 14 15 16 16 15 15 15 15 15 15 16 15 15 16 15 16 21 29 31 29 29 27 24 23 23 23 21
27 33 37 37 38 41 42 42 42 42 41 40 42 43 43 44 44 43 41 38 37 35 34 33 33 33 31 31 31 29 29 29 27 25 25 24 23 23 24 23 23 24 23 23 24 25 24 24 22 20 20 18 22 25 22 20 18 15 15 16 16 15 14 13 13 14 15 15 15 15 15 15 16 22 28 31 29 28 28 25 23 22 22 22 21
21 26 32 35 37 40 41 41 41 41 40 40 41 43 43 44 45 45 42 40 39 37 35 33 33 33 31 31 31 30 30 29 27 26 26 24 23 24 24 23 23 23 23 24 24 24 23 23 21 20 20 19 22 24 22 20 18 16 15 15 15 14 13 12 13 14 15 16 16 15 14 17 23 29 30 30 28 26 25 23 22 22 22 22 21
14 21 26 32 36 40 41 40 41 40 39 39 40 42 42 44 45 45 44 42 41 39 37 34 32 33 32 32 32 32 31 29 28 27 26 25 24 25 25 24 24 24 24 24 24 23 23 22 20 19 19 19 22 24 23 20 18 16 15 15 14 13 12 13 14 15 16 16 17 17 21 27 30 30 28 28 27 24 24 22 22 22 23 21 21
12 17 24 30 35 38 41 41 40 39 39 38 39 41 42 43 45 45 44 43 42 41 39 36 33 33 33 33 33 33 32 31 30 27 25 25 25 25 25 25 24 24 24 23 23 23 23 22 20 19 19 19 22 23 23 21 18 16 15 15 14 12 12 14 15 16 17 19 23 27 30 31 29 28 27 26 25 24 23 22 21 21 22 21 21
13 15 19 25 34 38 39 41 41 39 39 40 39 40 42 42 44 45 44 44 43 42 40 38 36 36 35 34 34 33 32 32 30 28 26 25 25 26 25 25 25 25 23 22 23 23 22 22 20 19 18 19 21 23 22 20 18 17 17 16 15 14 13 15 17 20 24 28 32 32 31 30 28 28 27 25 25 23 22 22 22 21 21 21 21
14 15 18 20 24 37 40 40 42 43 40 40 41 40 41 42 43 44 45 44 44 43 40 39 38 37 36 36 35 33 33 32 30 29 28 26 26 26 26 25 25 25 23 22 22 23 22 21 20 19 17 20 22 23 22 20 18 17 17 16 16 14 14 19 25 29 32 34 34 31 29 28 27 27 27 25 24 21 21 22 21 21 22 22 22
20 17 19 23 19 24 39 44 43 45 45 42 41 42 42 42 43 43 43 44 43 43 41 39 39 38 38 38 36 35 35 33 31 31 29 27 26 26 26 25 25 24 22 21 22 23 22 21 19 18 19 21 23 22 21 19 18 17 16 17 16 16 20 28 32 34 34 34 32 30 28 27 26 26 25 24 23 22 22 23 22 23 22 22 23
25 24 22 24 24 21 26 42 48 46 47 46 43 43 43 42 43 43 42 43 42 42 41 40 40 40 39 40 39 38 37 35 32 32 31 29 28 27 25 23 24 24 22 21 23 23 22 21 19 19 21 22 23 23 21 19 18 17 16 17 18 22 29 33 33 33 32 31 31 29 28 27 26 25 24 23 23 23 23 24 24 24 23 23 23
26 28 27 26 25 25 23 27 43 50 47 47 46 45 45 44 43 43 42 42 42 42 41 41 41 42 43 42 42 41 38 36 34 33 32 32 30 29 26 23 24 24 22 23 24 24 22 20 19 20 22 22 23 23 21 21 19 18 19 21 24 29 34 34 32 31 30 29 29 28 27 26 25 24 24 24 24 24 24 24 24 24 24 24 23
28 29 29 29 27 22 24 26 26 42 49 45 46 46 46 46 44 42 43 42 43 44 42 43 43 44 44 44 44 42 39 37 36 35 34 34 31 30 28 26 26 25 24 25 25 23 21 20 20 22 22 22 23 23 23 25 25 24 25 27 31 34 35 35 33 32 30 29 28 28 28 26 25 25 24 24 25 25 25 25 25 25 25 23 22
30 30 30 30 27 21 21 24 24 27 46 48 45 47 46 46 45 42 42 43 43 44 44 44 44 45 44 44 45 42 40 39 38 37 35 34 32 31 30 29 28 28 27 26 26 24 21 20 21 23 23 22 24 25 25 29 31 29 29 31 35 36 35 35 33 33 31 30 28 28 28 27 26 25 25 25 25 25 25 25 25 24 24 22 21
32 32 31 31 28 24 23 18 21 23 36 50 46 45 47 45 43 43 43 43 43 43 44 46 46 46 45 44 45 43 42 42 40 39 36 34 34 33 32 32 31 31 30 29 27 25 23 21 22 24 24 24 26 26 26 32 34 33 33 33 36 35 34 34 32 32 31 30 29 28 28 28 27 26 26 25 25 25 23 24 23 23 22 21 20
33 35 33 31 29 25 22 17 17 22 23 40 46 42 45 46 43 43 44 44 44 43 44 46 47 47 47 46 45 45 44 43 42 40 37 35 35 35 34 33 33 32 32 31 29 27 25 23 24 25 25 26 27 27 28 34 36 37 37 35 35 36 35 34 32 31 30 30 28 28 28 28 27 27 26 26 25 23 21 22 22 22 21 21 20
31 34 35 31 27 25 20 16 15 18 21 25 41 43 42 46 44 41 43 45 44 43 45 46 47 47 47 47 46 45 45 44 43 41 39 38 36 36 36 35 34 34 32 31 30 29 28 27 26 25 26 27 27 28 31 35 36 39 39 36 35 36 36 35 33 32 31 30 28 28 28 27 28 28 26 25 23 22 22 22 21 22 21 20 20
30 34 35 30 27 25 20 15 15 15 20 22 29 42 43 43 45 44 41 44 45 42 44 45 46 47 47 48 47 46 46 46 44 43 41 39 38 38 38 37 36 34 33 31 30 31 31 29 27 28 29 28 28 31 32 34 36 40 40 37 35 35 36 35 35 34 32 30 29 27 26 26 27 26 25 23 22 23 22 21 21 21 20 20 19
30 34 32 29 27 25 20 18 16 14 15 22 25 31 43 45 44 47 43 43 45 42 42 45 45 46 48 48 49 48 47 47 45 44 43 41 40 40 39 38 37 36 34 32 32 32 32 31 30 32 33 31 30 33 32 34 37 39 40 38 36 36 36 35 36 35 30 29 31 28 25 25 25 24 24 23 22 22 21 20 20 20 20 20 19
30 32 30 27 27 24 21 19 17 15 12 15 24 28 36 49 47 46 47 45 45 43 42 44 44 45 47 48 48 49 47 47 46 44 44 43 41 41 40 39 38 36 36 35 34 34 34 33 31 31 35 34 32 33 34 35 38 39 40 39 37 37 37 36 36 34 31 31 32 29 27 26 24 23 23 22 22 22 21 20 20 20 19 19 19
31 30 30 27 26 24 21 19 16 13 11 11 17 27 29 40 50 48 47 48 45 44 44 42 43 43 45 47 47 48 48 46 47 46 44 44 43 41 40 40 39 37 38 37 36 35 35 34 32 28 32 35 32 32 35 37 38 37 40 40 37 37 37 37 36 34 32 34 33 31 30 28 25 23 22 22 22 21 21 20 20 19 19 19 18
31 31 29 27 26 23 20 19 16 12 11 11 16 26 30 26 42 51 47 48 45 45 46 42 42 43 44 46 46 46 47 47 47 46 45 44 43 41 41 40 39 40 39 39 38 37 36 35 33 31 33 36 33 32 35 37 36 34 38 41 38 37 35 36 36 35 34 34 34 33 32 29 27 26 23 22 21 21 21 20 19 18 18 18 17
31 29 27 27 27 22 20 18 15 13 10 9 13 20 23 26 30 48 50 49 48 46 47 43 41 42 44 45 46 46 46 47 47 46 45 43 42 41 41 40 39 41 41 40 40 39 39 37 36 35 36 37 36 34 35 36 34 34 37 39 39 37 35 35 34 34 34 34 34 33 31 29 29 28 26 24 22 21 21 20 19 18 17 16 16
28 26 26 28 26 21 19 18 14 12 9 10 10 14 17 23 25 35 51 50 47 47 47 45 41 41 44 44 45 46 45 47 47 46 45 43 42 41 40 41 41 42 43 42 42 41 40 40 39 39 37 37 37 36 35 34 33 34 36 37 37 35 35 36 35 34 33 33 33 32 31 30 29 29 28 26 25 22 20 19 18 17 17 16 15
25 25 26 27 25 21 18 16 14 11 9 10 11 9 15 20 25 22 42 53 47 46 48 45 42 42 43 45 45 46 45 46 47 46 45 43 42 42 41 41 42 44 45 43 44 43 42 41 40 40 38 36 36 35 34 34 33 33 34 36 36 34 34 34 34 35 33 32 32 31 31 30 29 29 29 29 28 26 23 22 20 19 18 17 15
23 24 26 25 24 20 17 15 12 11 8 9 10 4 9 17 27 32 25 50 50 46 49 45 42 43 43 45 45 45 45 45 47 47 45 45 43 42 42 42 45 46 45 45 44 44 44 42 40 40 39 36 35 35 33 33 32 31 32 33 33 33 34 33 33 34 33 32 32 31 30 30 30 29 29 29 28 28 26 25 23 22 21 20 18
23 25 25 23 23 19 16 14 11 11 8 8 7 1 7 16 28 39 31 36 54 48 49 48 42 44 44 46 47 46 46 46 47 46 44 44 44 43 43 43 46 46 45 45 44 44 44 43 41 39 40 39 36 35 33 32 31 31 30 29 30 30 30 31 31 31 32 32 31 30 30 29 28 28 28 28 28 28 26 24 23 23 22 21 21
24 25 24 22 21 18 15 13 10 9 8 8 8 2 10 18 23 31 38 27 49 49 47 51 45 44 45 46 48 47 47 47 47 46 45 44 43 43 43 45 46 46 45 44 43 43 42 43 42 38 38 39 38 37 35 32 31 30 29 27 26 27 27 28 29 29 29 29 29 29 28 28 27 27 27 27 26 26 25 23 21 22 22 21 20
23 24 23 22 20 17 14 11 10 8 6 8 9 3 6 10 16 19 33 30 41 51 46 50 47 44 46 46 48 48 46 47 47 46 45 44 44 44 45 46 46 47 46 45 45 45 44 44 43 41 39 37 37 38 37 35 33 28 25 25 23 23 24 25 26 25 26 26 26 27 27 27 26 25 25 25 25 24 23 21 19 20 21 21 20
22 22 21 21 20 16 13 10 8 7 6 7 9 4 4 2 8 13 24 30 27 47 44 47 49 45 46 48 48 48 47 47 49 48 46 46 45 45 46 46 47 49 49 48 48 46 45 44 43 43 42 39 36 37 40 40 35 27 21 21 20 19 19 21 22 21 23 23 23 24 25 25 25 24 24 23 24 23 21 20 19 19 20 21 20
21 22 22 21 19 15 13 10 7 6 6 7 8 9 11 6 6 10 17 28 18 34 43 42 48 47 45 48 48 47 48 48 50 49 48 48 47 47 47 48 48 49 47 46 47 46 45 45 43 41 41 41 38 39 44 39 29 24 23 19 15 14 13 14 17 16 17 19 20 21 21 23 23 23 23 22 22 21 20 19 18 19 20 20 20
19 20 20 19 17 15 13 9 6 5 5 7 7 12 14 6 2 8 12 22 25 21 43 40 42 47 44 48 48 46 48 48 49 50 49 49 49 49 48 49 49 48 46 45 45 47 46 46 47 43 39 38 36 40 44 36 29 27 23 14 6 7 6 6 10 11 13 14 16 18 18 20 21 21 21 21 21 20 19 19 18 18 18 18 19
18 19 19 17 16 14 13 9 6 5 5 7 7 11 14 9 5 5 8 11 24 12 34 42 40 44 43 46 47 47 48 48 49 50 49 50 50 51 51 50 49 48 48 47 46 48 49 48 48 46 44 38 34 39 37 31 37 34 16 7 5 6 3 5 8 6 9 11 11 14 15 17 19 19 19 18 18 18 18 19 18 16 15 16 20
18 21 19 17 14 14 13 10 6 5 5 7 6 7 14 14 9 3 7 7 17 17 12 29 35 39 40 42 45 46 47 46 49 50 50 50 49 51 51 49 48 48 49 49 48 48 49 49 49 49 50 45 40 40 33 28 40 40 23 11 8 3 2 10 13 6 6 9 10 12 13 14 16 17 17 17 17 17 17 17 16 14 15 18 22
18 20 18 15 13 13 12 10 7 6 5 7 7 6 14 16 13 11 10 12 10 15 9 9 21 33 36 38 40 42 43 42 44 47 48 49 50 50 50 47 46 46 47 48 48 47 46 47 49 50 50 48 45 41 33 32 37 35 27 21 14 8 12 18 11 2 4 7 8 11 12 13 15 15 17 17 17 17 17 16 15 15 17 20 22
18 17 16 14 12 12 12 11 8 6 5 6 8 8 12 16 12 9 10 14 8 5 5 4 8 22 28 34 37 37 39 40 41 42 44 47 48 48 48 48 47 45 46 46 46 48 48 48 48 49 47 45 45 42 37 36 36 29 22 20 12 11 24 27 14 6 5 5 9 12 12 13 13 14 16 16 16 16 16 16 16 16 18 20 21
16 16 16 15 13 11 11 11 9 6 6 7 9 9 12 16 13 5 7 15 15 9 5 1 3 11 18 27 34 35 35 39 42 42 42 44 44 45 47 48 46 44 44 44 44 46 47 47 46 45 44 44 45 45 43 40 38 31 24 18 10 13 27 31 26 18 8 4 7 10 12 13 13 14 15 15 16 16 16 17 17 18 19 20 19
12 14 16 16 13 11 10 10 9 7 6 7 9 11 12 14 14 9 6 11 16 19 16 11 9 9 11 17 27 33 34 36 41 43 42 43 42 44 46 46 45 44 45 45 45 43 43 44 45 43 43 45 45 44 43 44 42 37 31 22 14 18 24 23 24 19 9 7 6 6 12 14 13 15 15 15 16 16 17 17 17 18 18 19 20
10 12 14 15 13 11 10 10 9 7 6 8 9 11 13 13 13 11 9 9 12 18 23 23 21 17 15 17 21 25 27 29 32 36 40 41 41 43 44 45 45 46 47 47 47 46 45 45 46 45 44 45 43 39 41 46 45 39 37 31 23 24 21 15 18 17 10 8 6 8 18 18 13 15 17 16 16 16 17 17 17 18 18 19 19
9 11 13 14 13 11 10 9 9 8 7 8 10 11 13 13 13 12 12 12 13 17 21 24 27 27 27 29 29 29 30 30 28 30 34 36 38 41 42 42 44 44 44 45 46 47 47 47 46 45 43 44 43 39 38 42 43 39 38 37 34 33 28 20 24 25 15 10 8 9 17 17 13 15 17 17 16 16 17 17 17 18 18 19 19
Wind_Direction
184 177 174 171 168 166 168 168 168 168 167 167 165 165 164 165 164 162 160 157 155 154 151 146 143 139 138 137 134 133 134 134 134 134 132 130 130 130 130 130 130 129 128 128 127 126 128 128 127 129 124 117 115 114 116 117 115 112 111 112 111 113 114 113 113 113 115 115 113 112 113 111 108 107 105 107 108 106 106 104 103 101 99 97 94
181 178 175 172 170 167 169 168 168 169 169 169 167 166 165 167 167 165 162 159 157 154 151 146 145 143 141 140 138 137 138 137 136 135 134 132 132 132 133 133 133 133 131 129 127 128 129 128 129 127 122 121 118 115 116 117 118 114 115 116 116 118 118 118 119 120 118 113 108 108 113 112 109 108 105 103 103 104 103 101 100 98 97 98 100
175 176 175 172 171 169 170 168 169 169 170 171 169 169 167 168 169 168 164 161 159 155 152 148 148 147 145 144 142 141 141 140 139 137 136 135 135 135 135 136 138 138 135 133 130 129 130 128 129 125 121 125 123 118 118 119 120 118 118 117 116 116 114 114 115 116 114 112 108 105 108 109 108 108 106 100 95 97 101 98 95 94 93 92 95
172 173 174 172 171 172 171 169 170 170 171 172 171 171 169 169 170 170 167 165 163 159 155 151 152 151 149 147 146 146 145 144 143 141 140 139 137 136 136 137 140 141 139 138 136 133 131 131 129 125 121 125 127 124 121 121 121 120 118 115 115 114 109 106 105 106 109 113 114 112 108 106 106 108 107 102 95 93 97 94 90 91 91 91 91
173 173 173 172 171 173 173 172 171 171 171 172 172 173 172 170 171 170 168 168 166 164 158 155 157 155 152 151 151 151 150 149 148 146 145 143 139 136 136 138 140 141 140 140 140 138 134 132 129 125 123 125 129 128 127 124 122 120 119 117 115 113 109 105 103 103 107 117 124 121 115 113 111 111 110 108 103 94 96 98 99 102 100 100 97
174 173 173 173 172 174 174 174 174 173 173 173 173 174 174 172 172 170 169 169 167 167 163 160 160 158 156 155 155 155 155 154 152 150 149 146 140 138 137 139 142 141 141 140 141 141 137 135 131 129 126 127 130 131 129 126 125 123 122 120 116 114 111 107 106 104 107 122 131 128 121 120 118 115 108 107 108 101 102 107 108 108 103 103 101
176 174 175 174 174 175 175 176 176 175 175 175 174 174 174 174 173 170 171 170 169 169 166 165 164 161 159 159 158 158 158 156 156 154 152 149 145 143 141 141 143 142 141 141 142 142 140 139 136 132 130 131 133 132 131 130 130 126 123 121 119 115 112 116 120 112 109 121 131 132 127 125 122 112 107 110 113 108 107 107 105 102 100 102 100
177 176 177 176 176 176 176 177 176 176 177 177 176 176 175 174 173 173 174 171 170 169 167 168 167 165 162 162 160 160 160 159 159 158 154 150 149 148 144 144 144 142 141 140 142 142 141 142 140 135 135 136 135 135 136 134 129 125 123 121 115 110 112 126 130 118 110 115 122 125 126 126 122 112 115 123 118 112 108 104 105 103 103 103 99
179 179 179 179 178 177 177 177 177 177 178 179 178 178 176 174 174 176 176 172 171 170 168 170 170 169 166 164 163 163 163 161 161 158 155 152 152 150 145 145 144 142 141 140 141 141 142 143 142 139 139 138 138 140 139 133 128 127 125 119 110 111 121 127 127 119 111 113 115 118 120 119 119 120 124 124 117 113 108 106 107 105 104 102 99
181 181 182 182 180 179 179 178 178 177 178 180 180 180 177 176 176 177 177 173 173 172 171 171 172 173 170 168 168 168 166 164 161 158 155 153 154 150 145 146 144 142 141 141 141 142 141 142 143 141 141 142 144 144 138 132 130 130 124 115 111 119 126 128 128 120 114 115 117 120 121 122 129 131 122 116 116 114 112 112 108 105 104 102 100
183 184 184 185 183 181 181 180 180 179 179 180 181 181 179 178 178 178 179 176 174 175 175 173 173 174 173 174 174 171 168 166 162 158 155 153 154 148 146 146 144 144 143 141 141 142 142 143 144 142 142 145 150 146 138 134 133 129 121 117 116 121 125 127 130 124 119 120 122 124 127 132 136 130 119 117 118 117 117 116 110 107 106 103 100
185 186 187 188 186 184 183 182 181 181 181 181 181 181 181 180 179 180 179 177 175 177 178 177 175 174 176 179 177 173 170 167 162 158 156 154 153 149 147 147 146 146 144 143 142 144 144 145 145 144 144 147 152 148 141 138 136 127 120 121 120 121 122 121 127 128 125 125 127 127 130 135 132 124 121 121 120 120 118 113 110 108 106 104 102
188 188 190 191 190 188 186 185 183 184 183 182 181 181 182 180 181 181 180 178 177 179 181 180 178 176 178 180 177 175 172 168 163 158 156 156 154 151 149 148 149 148 146 145 144 145 146 147 147 146 146 146 153 152 147 144 138 130 123 124 125 124 122 121 125 130 128 129 132 133 134 133 130 127 127 126 122 120 115 107 107 106 105 103 100
192 192 192 193 192 191 189 188 186 186 185 185 183 182 182 181 182 182 182 180 178 181 182 183 182 179 179 179 178 177 174 168 164 159 157 157 156 153 150 150 150 149 148 147 147 148 148 149 150 149 148 147 156 157 153 150 142 134 127 128 130 128 127 127 128 131 131 131 135 139 139 135 134 133 130 125 119 115 112 107 106 106 104 99 97
200 196 194 194 193 192 192 191 189 188 188 188 185 184 183 182 182 183 183 180 179 181 182 184 183 182 181 180 178 177 174 168 164 161 159 159 158 154 151 152 153 151 151 150 150 150 152 153 152 151 150 151 158 158 155 152 145 138 132 132 133 132 133 135 134 137 137 136 140 143 143 140 137 130 125 120 114 111 109 107 106 104 100 97 94
216 204 197 195 194 193 194 193 193 191 190 191 189 187 186 184 183 184 183 181 180 181 183 184 183 182 182 180 178 176 174 168 163 162 162 161 158 155 153 154 154 153 153 152 152 153 155 154 153 152 151 154 158 157 157 153 148 141 135 135 136 136 139 141 140 140 141 142 145 147 142 136 131 123 118 116 113 109 106 105 105 102 98 96 93
243 217 205 200 197 194 194 195 195 193 193 194 192 190 188 186 184 184 183 181 181 181 182 183 182 182 182 182 179 176 174 167 164 165 165 162 157 155 155 156 156 155 155 153 153 155 156 154 153 151 151 155 157 157 157 155 150 144 138 139 139 137 140 145 143 142 144 145 146 141 132 128 125 119 113 112 111 107 105 104 103 101 98 96 93
282 234 216 207 201 197 196 196 196 195 195 195 195 193 192 189 186 185 183 182 181 181 182 182 183 183 182 182 179 176 172 167 167 167 164 160 157 157 156 157 157 157 159 157 155 156 157 156 153 152 155 157 157 157 158 156 152 145 143 143 140 138 140 143 143 142 143 141 137 131 125 122 119 115 112 110 108 106 106 104 101 100 98 97 95
295 263 241 221 205 200 199 197 196 196 196 196 197 196 195 192 188 186 183 183 183 181 181 181 182 182 180 180 179 174 170 168 168 165 162 161 160 159 157 158 159 158 159 157 156 159 159 157 155 156 159 157 156 158 158 156 153 149 148 144 139 142 144 142 141 138 137 136 132 128 123 119 117 113 109 107 105 106 108 106 101 99 99 98 96
301 280 273 265 225 204 201 200 197 196 197 196 196 197 197 194 190 187 185 185 184 182 181 180 181 182 179 179 176 172 169 170 168 165 163 164 163 160 159 161 160 159 158 156 157 161 159 159 159 160 160 156 155 157 157 155 154 151 149 145 143 147 146 140 137 135 133 133 131 128 124 121 119 113 108 106 106 106 106 104 102 100 98 97 97
309 298 284 295 286 227 206 202 200 197 196 195 196 196 198 197 192 189 187 186 184 183 182 181 181 179 178 176 173 171 170 170 168 166 165 164 163 161 163 164 160 159 161 158 159 161 159 161 161 160 160 156 155 155 155 155 153 151 148 144 146 147 142 138 135 133 131 129 129 128 126 122 118 113 110 108 107 105 103 102 102 100 98 98 97
306 308 299 301 305 284 233 208 201 198 196 194 194 195 196 197 194 191 189 187 185 183 182 182 180 176 177 173 170 171 170 170 170 166 165 165 164 163 166 165 160 160 160 157 159 161 160 164 161 159 161 158 156 154 151 150 149 150 148 146 149 143 137 136 134 131 128 126 125 124 121 118 116 112 110 109 107 105 104 103 101 100 99 98 97
302 304 304 304 300 302 293 241 209 198 196 194 192 192 194 194 194 192 190 188 185 184 183 181 178 175 174 172 169 170 171 172 170 167 167 167 166 166 166 161 159 160 160 159 162 164 162 162 158 159 163 159 155 152 149 150 153 154 152 150 145 137 133 133 132 128 125 123 121 119 117 115 113 110 109 108 108 106 105 104 102 101 101 98 98
300 301 300 303 300 301 313 299 245 206 196 194 193 191 191 191 192 191 189 188 185 184 183 181 179 175 172 171 171 171 173 171 169 169 169 169 168 167 165 159 158 162 163 161 165 169 163 156 156 161 163 160 154 151 152 150 152 152 148 144 136 132 131 130 129 126 123 120 119 117 116 114 110 109 110 109 107 107 107 105 104 102 100 99 98
297 299 296 299 299 299 311 315 299 238 203 194 193 191 189 188 189 189 188 187 186 184 182 181 178 176 173 172 171 172 172 169 169 171 171 171 169 167 166 162 161 164 166 164 165 168 164 158 159 161 163 162 153 155 155 145 145 148 146 140 133 132 131 129 128 125 123 121 119 118 117 114 112 112 110 109 108 107 106 104 103 101 100 99 99
294 293 293 296 293 299 313 312 311 284 219 197 192 192 188 187 187 186 187 187 186 184 182 180 176 176 174 172 171 171 170 169 170 172 172 172 170 168 167 165 165 166 167 167 165 166 164 159 157 158 161 161 156 160 155 142 144 146 146 140 132 133 131 129 128 125 124 122 121 120 117 116 115 114 112 111 110 107 105 104 103 102 101 101 100
290 289 289 292 290 296 313 309 304 303 251 203 192 192 189 188 189 186 186 187 186 183 182 180 177 175 174 173 172 170 169 169 171 172 173 172 170 170 167 167 167 168 169 167 164 164 161 156 156 157 159 159 160 163 151 141 143 144 146 141 133 133 131 130 129 126 125 123 124 122 119 119 118 116 114 113 111 108 107 106 105 104 103 103 101
281 284 286 285 288 293 303 305 294 299 286 227 196 192 192 189 189 188 187 187 187 184 183 180 177 175 175 174 173 171 170 169 171 172 173 172 172 171 168 168 167 168 170 167 164 161 157 157 158 159 159 160 163 160 147 138 140 143 146 142 135 133 131 130 129 125 123 122 124 123 121 121 119 116 115 113 111 111 110 108 108 106 105 104 102
274 279 282 281 285 293 297 294 286 283 288 268 214 194 192 191 189 188 188 188 188 185 183 180 177 176 176 176 174 173 171 170 171 172 172 172 172 171 168 168 167 168 169 168 165 159 157 159 160 160 160 161 160 155 146 138 138 143 147 144 139 135 133 131 128 127 126 126 125 121 120 120 118 117 116 114 112 113 112 112 112 108 106 106 104
273 276 276 279 284 290 295 289 286 282 283 287 265 218 196 192 192 189 188 189 188 187 184 181 178 177 176 176 177 175 173 172 172 172 172 171 171 170 168 167 166 168 169 167 164 160 159 160 159 157 158 160 159 152 145 139 137 141 146 148 142 136 135 133 131 132 131 131 129 123 122 123 121 118 117 116 115 116 115 114 114 111 110 108 106
271 272 272 278 283 285 291 289 288 290 287 283 280 260 213 195 192 191 189 190 189 187 186 182 180 178 177 177 177 176 174 173 172 172 171 170 170 169 168 167 165 168 169 165 162 163 163 162 161 155 154 159 157 150 147 140 135 138 144 147 144 138 138 137 136 136 133 132 132 128 128 127 121 119 121 120 119 117 116 115 113 113 113 109 109
269 269 274 278 279 281 285 287 290 287 273 252 264 274 249 206 191 189 189 188 189 189 186 183 181 179 179 178 177 176 175 174 173 173 172 171 171 169 168 167 165 168 169 165 163 165 165 166 168 163 157 159 155 147 147 143 137 136 141 144 145 141 139 140 141 139 135 134 133 131 133 132 126 125 128 124 122 120 118 118 115 115 115 112 112
269 271 274 275 274 278 282 284 286 279 259 248 263 275 280 249 200 189 188 187 188 190 187 184 182 179 179 179 177 177 175 174 173 173 173 172 172 171 170 168 166 168 168 165 164 165 166 165 167 166 162 158 154 146 143 141 139 136 138 143 145 144 142 142 144 143 140 137 135 134 135 135 133 133 131 127 126 124 122 120 117 118 118 116 113
269 270 269 271 272 275 281 282 277 277 260 229 260 267 277 282 228 192 185 187 187 188 189 185 182 179 178 179 179 178 176 175 174 174 173 172 173 172 171 168 166 167 167 166 166 165 165 164 162 161 159 156 152 149 143 138 138 137 137 143 145 144 145 144 144 146 145 142 140 139 139 139 140 138 133 132 130 127 126 123 121 121 121 120 116
266 264 265 270 271 272 276 279 273 267 252 215 241 261 265 287 268 206 185 186 186 186 189 187 183 180 178 180 180 179 178 177 175 175 174 173 173 172 172 169 167 168 167 167 167 165 164 162 162 158 153 151 148 148 147 141 138 137 138 142 145 145 145 145 145 148 149 147 145 144 144 144 144 142 138 137 134 131 128 126 125 124 123 122 119
260 258 264 268 268 271 271 274 275 261 249 235 230 254 274 288 297 251 193 185 185 183 186 187 184 181 179 180 182 181 179 179 177 175 175 174 174 173 172 171 169 168 168 169 167 164 163 161 162 161 152 147 146 145 146 145 140 137 139 142 145 146 145 144 145 147 150 150 148 147 147 147 147 146 145 142 139 138 137 137 138 137 134 129 125
259 256 260 266 268 270 273 273 276 266 248 239 225 224 288 281 295 295 228 187 183 182 182 185 184 182 181 180 182 182 181 180 178 177 176 175 175 173 173 172 170 169 168 169 167 165 165 160 159 163 158 149 144 142 141 142 140 138 139 141 143 145 144 144 145 147 149 151 150 150 150 150 150 151 150 148 147 146 147 148 148 146 142 137 132
260 256 255 265 271 271 275 276 278 273 250 227 232 332 340 297 286 293 280 202 183 182 182 183 185 183 181 181 182 183 182 181 180 178 177 176 175 174 173 173 171 169 168 167 167 165 165 162 157 158 161 156 148 142 139 137 137 137 136 138 142 143 141 143 144 146 149 150 150 153 154 154 154 154 154 153 153 154 154 153 152 150 147 143 139
259 253 253 262 271 273 273 279 280 269 259 230 219 5 349 315 291 287 294 242 186 180 183 182 184 184 180 181 182 183 183 182 181 179 178 177 175 174 173 173 171 169 167 166 165 165 163 162 158 154 156 158 155 148 142 136 131 131 132 133 137 140 141 142 144 146 149 150 151 153 156 157 157 156 156 156 157 159 159 157 155 153 151 149 145
255 248 251 259 266 272 271 278 283 259 262 233 192 70 2 313 303 294 302 276 194 178 183 182 183 184 182 182 182 183 184 183 182 181 180 177 176 175 174 173 172 170 168 167 167 167 166 163 160 156 152 151 152 150 146 139 127 118 120 126 130 134 138 142 145 146 148 151 152 154 156 158 160 160 158 159 160 162 162 160 158 157 155 154 150
250 244 245 256 264 271 271 269 279 253 242 230 196 166 156 167 324 308 304 291 208 177 180 183 182 184 184 183 183 184 183 183 182 182 181 179 177 176 174 173 173 172 173 173 171 169 168 164 160 159 156 150 148 150 150 144 130 116 108 107 114 124 132 140 144 147 149 151 154 156 158 161 163 164 163 163 164 165 165 163 162 161 160 159 154
242 243 242 253 263 268 272 264 265 257 230 230 217 179 159 139 332 313 307 303 261 184 180 181 181 183 185 185 184 184 184 183 183 183 182 180 178 176 175 174 174 174 174 173 172 169 167 165 160 157 158 156 154 154 155 151 140 134 128 109 95 108 121 135 141 146 149 151 156 158 160 163 166 167 167 167 168 167 168 168 167 164 162 163 161
237 242 243 251 261 266 271 269 261 263 235 224 214 169 155 139 312 324 323 308 299 214 183 181 181 182 186 186 185 185 185 184 183 183 182 181 179 177 176 176 176 175 174 172 172 171 168 168 165 160 157 156 158 160 161 160 150 140 135 128 121 114 108 135 144 147 154 157 163 164 163 167 169 171 171 171 172 173 174 174 172 168 166 170 170
235 239 245 249 259 269 273 280 273 258 239 215 207 184 168 135 117 351 354 315 311 272 177 176 182 183 186 187 186 186 186 186 185 183 182 181 180 179 178 178 178 177 175 173 172 172 172 171 169 165 161 157 160 165 168 167 158 151 134 102 131 145 158 162 136 135 168 173 179 178 174 175 174 176 177 177 179 181 181 180 178 176 176 178 175
238 240 246 250 259 276 278 284 278 242 235 210 200 196 173 143 134 144 54 33 325 328 144 160 175 181 184 186 187 187 187 187 185 184 183 182 181 181 180 180 179 178 178 176 175 175 175 174 171 170 169 167 166 168 174 177 171 167 159 140 145 178 185 147 139 140 183 183 190 192 192 190 186 185 186 187 188 187 186 184 183 182 182 180 176
242 244 248 254 260 277 279 280 276 239 228 205 190 186 176 162 152 156 113 75 3 337 18 118 166 176 181 184 185 187 188 187 185 183 182 181 182 182 181 180 178 178 179 178 177 176 176 176 176 175 175 174 169 167 174 182 181 177 172 170 178 182 155 146 141 128 170 185 196 196 201 201 198 195 192 192 192 191 188 186 186 184 180 180 178
244 247 248 257 260 274 278 274 276 249 220 205 194 181 180 178 159 150 141 114 89 324 332 26 152 171 179 182 183 187 188 186 183 182 181 181 182 181 180 180 180 179 179 179 178 179 180 180 181 179 178 177 172 169 175 180 184 187 186 182 181 175 167 164 162 146 151 199 202 196 203 204 203 203 199 197 196 196 194 191 191 189 184 183 183
244 246 246 257 260 266 275 269 270 261 222 201 200 191 188 193 188 177 156 144 143 158 182 266 165 167 176 180 183 187 187 185 184 184 182 181 181 180 180 180 180 180 179 180 180 182 182 182 183 183 181 181 178 177 178 180 184 190 192 189 182 173 175 176 175 168 153 164 184 193 199 199 206 209 205 204 203 204 203 199 196 193 190 189 189
240 242 245 255 256 250 262 264 260 258 232 202 201 202 199 204 208 204 177 162 159 154 157 176 184 180 184 181 180 181 182 183 183 184 182 181 181 180 181 181 180 181 182 183 185 185 184 184 184 185 185 186 186 184 182 182 186 188 187 188 176 163 171 179 180 172 148 138 163 189 184 184 200 208 207 205 205 207 206 204 200 196 193 192 191
233 235 239 246 248 236 237 253 254 247 237 210 201 207 209 210 212 206 190 181 173 163 162 167 175 191 203 196 184 179 178 178 178 179 179 178 180 181 182 182 182 184 185 186 188 187 187 188 187 188 190 190 189 189 188 187 189 189 188 185 173 163 166 175 181 175 146 135 156 179 179 178 183 192 199 202 202 205 205 205 203 198 196 194 193
228 223 225 234 240 231 221 236 249 239 228 217 205 207 214 214 213 212 204 193 184 178 173 169 174 186 193 194 194 193 192 190 187 184 183 183 184 185 187 186 186 188 188 187 189 190 190 191 190 191 193 194 193 194 193 192 190 190 192 190 185 181 179 179 183 180 167 151 145 160 175 178 173 175 187 198 201 202 204 206 206 202 198 196 196